"date","FR0010452037","FR0011010206"
"2007-05-22","1000",""
"2007-05-23","1000",""
"2007-05-24","1000",""
"2007-05-25","1000.33",""
"2007-05-28","1000.33",""
"2007-05-29","1000.79",""
"2007-05-30","1000.91",""
"2007-05-31","1001.01",""
"2007-06-01","1001.02",""
"2007-06-04","1001.38",""
"2007-06-05","1001.47",""
"2007-06-06","1001.61",""
"2007-06-07","1001.71",""
"2007-06-08","1001.71",""
"2007-06-11","1001.87",""
"2007-06-12","1001.91",""
"2007-06-13","1002.06",""
"2007-06-14","1002.15",""
"2007-06-15","1002.15",""
"2007-06-18","1002.51",""
"2007-06-19","1002.62",""
"2007-06-20","1002.77",""
"2007-06-21","1002.88",""
"2007-06-22","1002.88",""
"2007-06-25","1003.27",""
"2007-06-26","1003.38",""
"2007-06-27","1003.53",""
"2007-06-28","1003.64",""
"2007-06-29","1003.64",""
"2007-07-02","1004.03",""
"2007-07-03","1004.14",""
"2007-07-04","1004.29",""
"2007-07-05","1004.4",""
"2007-07-06","1004.4",""
"2007-07-09","1004.73",""
"2007-07-10","1004.83",""
"2007-07-11","1004.97",""
"2007-07-12","1005.07",""
"2007-07-13","1005.07",""
"2007-07-16","1005.4",""
"2007-07-17","1005.51",""
"2007-07-18","1005.66",""
"2007-07-19","1005.76",""
"2007-07-20","1005.76",""
"2007-07-23","1006.14",""
"2007-07-24","1006.23",""
"2007-07-25","1006.36",""
"2007-07-26","1006.46",""
"2007-07-27","1006.46",""
"2007-07-30","1006.82",""
"2007-07-31","1006.86",""
"2007-08-01","1007",""
"2007-08-02","1007.08",""
"2007-08-03","1007.08",""
"2007-08-06","1003.33",""
"2007-08-07","1004.11",""
"2007-08-08","1012.13",""
"2007-08-09","1011.7",""
"2007-08-10","996.68",""
"2007-08-13","992.59",""
"2007-08-14","992.94",""
"2007-08-15","992.94",""
"2007-08-16","972.17",""
"2007-08-17","963.28",""
"2007-08-20","974.09",""
"2007-08-21","974.25",""
"2007-08-22","983.13",""
"2007-08-23","991.4",""
"2007-08-24","992.26",""
"2007-08-27","997.77",""
"2007-08-28","990.9",""
"2007-08-29","990.46",""
"2007-08-30","996.27",""
"2007-08-31","1000.15",""
"2007-09-03","1004.63",""
"2007-09-04","1008.01",""
"2007-09-05","1005.46",""
"2007-09-06","1004.46",""
"2007-09-07","997.93",""
"2007-09-10","990.69",""
"2007-09-11","994.55",""
"2007-09-12","998.51",""
"2007-09-13","1000.23",""
"2007-09-14","1000.03",""
"2007-09-17","994.27",""
"2007-09-18","999.1",""
"2007-09-19","1016.76",""
"2007-09-20","1016.21",""
"2007-09-21","1017.47",""
"2007-09-24","1017.76",""
"2007-09-25","1015.97",""
"2007-09-26","1018.12",""
"2007-09-27","1022.2",""
"2007-09-28","1023.32",""
"2007-10-01","1025.02",""
"2007-10-02","1029.59",""
"2007-10-03","1028.73",""
"2007-10-04","1026.98",""
"2007-10-05","1030.81",""
"2007-10-08","1032.26",""
"2007-10-09","1033.35",""
"2007-10-10","1035.67",""
"2007-10-11","1038.26",""
"2007-10-12","1037.16",""
"2007-10-15","1037.21",""
"2007-10-16","1031.89",""
"2007-10-17","1033.18",""
"2007-10-18","1031.83",""
"2007-10-19","1030.52",""
"2007-10-22","1023.26",""
"2007-10-23","1026.57",""
"2007-10-24","1027.36",""
"2007-10-25","1029.24",""
"2007-10-26","1033.76",""
"2007-10-29","1038.12",""
"2007-10-30","1038.27",""
"2007-10-31","1037.4",""
"2007-11-01","1037.4",""
"2007-11-02","1032.62",""
"2007-11-05","1029.3",""
"2007-11-06","1030.15",""
"2007-11-07","1028.02",""
"2007-11-08","1023.87",""
"2007-11-09","1018.08",""
"2007-11-12","1009",""
"2007-11-13","1007.47",""
"2007-11-14","1016.94",""
"2007-11-15","1010.23",""
"2007-11-16","1006.66",""
"2007-11-19","1003.71",""
"2007-11-20","998.96",""
"2007-11-21","991.19",""
"2007-11-22","987.93",""
"2007-11-23","992.97",""
"2007-11-26","993.87",""
"2007-11-27","987.44",""
"2007-11-28","998.49",""
"2007-11-29","1007.34",""
"2007-11-30","1012.08",""
"2007-12-03","1012.5",""
"2007-12-04","1010.15",""
"2007-12-05","1014.63",""
"2007-12-06","1018.39",""
"2007-12-07","1023.11",""
"2007-12-10","1024.04",""
"2007-12-11","1022.82",""
"2007-12-12","1022.15",""
"2007-12-13","1013.39",""
"2007-12-14","1008.21",""
"2007-12-17","998.69",""
"2007-12-18","998.1",""
"2007-12-19","997.72",""
"2007-12-20","998.86",""
"2007-12-21","1005.79",""
"2007-12-24","1006.97",""
"2007-12-25","1006.97",""
"2007-12-26","1006.97",""
"2007-12-27","1011.96",""
"2007-12-28","1011.46",""
"2007-12-31","1011.86",""
"2008-01-01","1011.86",""
"2008-01-02","1008.99",""
"2008-01-03","1003.66",""
"2008-01-04","997.63",""
"2008-01-07","991.06",""
"2008-01-08","990.87",""
"2008-01-09","989.74",""
"2008-01-10","987.44",""
"2008-01-11","986.19",""
"2008-01-14","987.28",""
"2008-01-15","978.96",""
"2008-01-16","966.67",""
"2008-01-17","961.07",""
"2008-01-18","954.52",""
"2008-01-21","932.52",""
"2008-01-22","923.38",""
"2008-01-23","919.13",""
"2008-01-24","931.78",""
"2008-01-25","940.26",""
"2008-01-28","937.45",""
"2008-01-29","942.05",""
"2008-01-30","942.71",""
"2008-01-31","940.99",""
"2008-02-01","945.75",""
"2008-02-04","953.27",""
"2008-02-05","945.51",""
"2008-02-06","939.63",""
"2008-02-07","934.38",""
"2008-02-08","934.97",""
"2008-02-11","933.58",""
"2008-02-12","938.72",""
"2008-02-13","942.16",""
"2008-02-14","945.77",""
"2008-02-15","941.68",""
"2008-02-18","943.72",""
"2008-02-19","945.85",""
"2008-02-20","943.59",""
"2008-02-21","944.93",""
"2008-02-22","943.61",""
"2008-02-25","945.69",""
"2008-02-26","952.69",""
"2008-02-27","955.06",""
"2008-02-28","952.87",""
"2008-02-29","946.81",""
"2008-03-03","941.24",""
"2008-03-04","936.11",""
"2008-03-05","937.85",""
"2008-03-06","937.35",""
"2008-03-07","931.07",""
"2008-03-10","926.19",""
"2008-03-11","927.13",""
"2008-03-12","932.74",""
"2008-03-13","929.03",""
"2008-03-14","927.97",""
"2008-03-17","919.18",""
"2008-03-18","920.24",""
"2008-03-19","920.86",""
"2008-03-20","916.98",""
"2008-03-21","916.98",""
"2008-03-24","916.98",""
"2008-03-25","924.72",""
"2008-03-26","928.94",""
"2008-03-27","928.72",""
"2008-03-28","928.71",""
"2008-03-31","928.04",""
"2008-04-01","930.51",""
"2008-04-02","939.2",""
"2008-04-03","939.44",""
"2008-04-04","940.55",""
"2008-04-07","943.09",""
"2008-04-08","942.66",""
"2008-04-09","941.23",""
"2008-04-10","939.79",""
"2008-04-11","937.29",""
"2008-04-14","933.25",""
"2008-04-15","934.17",""
"2008-04-16","938.98",""
"2008-04-17","941.25",""
"2008-04-18","944.23",""
"2008-04-21","947.34",""
"2008-04-22","945.27",""
"2008-04-23","946.09",""
"2008-04-24","946.89",""
"2008-04-25","948.78",""
"2008-04-28","951.3",""
"2008-04-29","950.52",""
"2008-04-30","950.57",""
"2008-05-01","950.57",""
"2008-05-02","956.43",""
"2008-05-05","957.51",""
"2008-05-06","959.45",""
"2008-05-07","960.19",""
"2008-05-08","960.19",""
"2008-05-09","958.92",""
"2008-05-12","958.92",""
"2008-05-13","962.37",""
"2008-05-14","963.22",""
"2008-05-15","965.45",""
"2008-05-16","968.28",""
"2008-05-19","970.87",""
"2008-05-20","969.84",""
"2008-05-21","966.15",""
"2008-05-22","964.67",""
"2008-05-23","961.23",""
"2008-05-26","960.75",""
"2008-05-27","959.03",""
"2008-05-28","961.18",""
"2008-05-29","962.3",""
"2008-05-30","964.63",""
"2008-06-02","963.77",""
"2008-06-03","963.68",""
"2008-06-04","960.97",""
"2008-06-05","962.6",""
"2008-06-06","959.44",""
"2008-06-09","955.79",""
"2008-06-10","952.28",""
"2008-06-11","946.99",""
"2008-06-12","946.28",""
"2008-06-13","947.11",""
"2008-06-16","947.19",""
"2008-06-17","947.76",""
"2008-06-18","945.38",""
"2008-06-19","943.63",""
"2008-06-20","941.03",""
"2008-06-23","938.27",""
"2008-06-24","936.34",""
"2008-06-25","935.89",""
"2008-06-26","932.61",""
"2008-06-27","928.31",""
"2008-06-30","927.92",""
"2008-07-01","925.78",""
"2008-07-02","921.64",""
"2008-07-03","919.31",""
"2008-07-04","918.23",""
"2008-07-07","919.65",""
"2008-07-08","918.81",""
"2008-07-09","918.92",""
"2008-07-10","918.46",""
"2008-07-11","913.4",""
"2008-07-14","913.4",""
"2008-07-15","908.23",""
"2008-07-16","908.72",""
"2008-07-17","912.98",""
"2008-07-18","912.34",""
"2008-07-21","913.15",""
"2008-07-22","913.33",""
"2008-07-23","917.7",""
"2008-07-24","914.47",""
"2008-07-25","913.03",""
"2008-07-28","910.24",""
"2008-07-29","911.86",""
"2008-07-30","917.05",""
"2008-07-31","917.84",""
"2008-08-01","914.95",""
"2008-08-04","910.44",""
"2008-08-05","911.41",""
"2008-08-06","914.88",""
"2008-08-07","915.55",""
"2008-08-08","915.6",""
"2008-08-11","917.33",""
"2008-08-12","916.78",""
"2008-08-13","915.06",""
"2008-08-14","913.54",""
"2008-08-15","913.54",""
"2008-08-18","912.59",""
"2008-08-19","907.72",""
"2008-08-20","908.16",""
"2008-08-21","907.36",""
"2008-08-22","907.12",""
"2008-08-25","906.94",""
"2008-08-26","907.39",""
"2008-08-27","909.14",""
"2008-08-28","912.22",""
"2008-08-29","913.59",""
"2008-09-01","912.16",""
"2008-09-02","911.66",""
"2008-09-03","908.14",""
"2008-09-04","900.13",""
"2008-09-05","893.64",""
"2008-09-08","896.92",""
"2008-09-09","894.33",""
"2008-09-10","890.43",""
"2008-09-11","890.04",""
"2008-09-12","892.01",""
"2008-09-15","885.62",""
"2008-09-16","877.12",""
"2008-09-17","869.39",""
"2008-09-18","865.67",""
"2008-09-19","879.87",""
"2008-09-22","881",""
"2008-09-23","873.26",""
"2008-09-24","869.29",""
"2008-09-25","872.4",""
"2008-09-26","870.5",""
"2008-09-29","856.16",""
"2008-09-30","853.76",""
"2008-10-01","852.25",""
"2008-10-02","846.17",""
"2008-10-03","840.61",""
"2008-10-06","826.29",""
"2008-10-07","815.51",""
"2008-10-08","805.47",""
"2008-10-09","794.33",""
"2008-10-10","774.14",""
"2008-10-13","783.89",""
"2008-10-14","801.82",""
"2008-10-15","786.57",""
"2008-10-16","769.23",""
"2008-10-17","771.33",""
"2008-10-20","776.17",""
"2008-10-21","779.4",""
"2008-10-22","766.07",""
"2008-10-23","758.48",""
"2008-10-24","753.55",""
"2008-10-27","746.84",""
"2008-10-28","745.7",""
"2008-10-29","751.79",""
"2008-10-30","760.31",""
"2008-10-31","764.66",""
"2008-11-03","766.86",""
"2008-11-04","775.44",""
"2008-11-05","778.39",""
"2008-11-06","767.33",""
"2008-11-07","764.81",""
"2008-11-10","769.56",""
"2008-11-11","769.56",""
"2008-11-12","762.71",""
"2008-11-13","760.58",""
"2008-11-14","761.58",""
"2008-11-17","758.37",""
"2008-11-18","755.25",""
"2008-11-19","754.02",""
"2008-11-20","747.92",""
"2008-11-21","746.94",""
"2008-11-24","748.6",""
"2008-11-25","750.46",""
"2008-11-26","750.59",""
"2008-11-27","753.42",""
"2008-11-28","754.27",""
"2008-12-01","752.76",""
"2008-12-02","749.42",""
"2008-12-03","751.24",""
"2008-12-04","752.79",""
"2008-12-05","750.24",""
"2008-12-08","753.14",""
"2008-12-09","754.84",""
"2008-12-10","754.34",""
"2008-12-11","755.21",""
"2008-12-12","752.14",""
"2008-12-15","752.46",""
"2008-12-16","753.17",""
"2008-12-17","755.05",""
"2008-12-18","755.99",""
"2008-12-19","755.27",""
"2008-12-22","755.88",""
"2008-12-23","753.44",""
"2008-12-24","753.01",""
"2008-12-25","753.01",""
"2008-12-26","753.01",""
"2008-12-29","754.19",""
"2008-12-30","756.2",""
"2008-12-31","757.95",""
"2009-01-01","757.95",""
"2009-01-02","759.43",""
"2009-01-05","761.85",""
"2009-01-06","763.15",""
"2009-01-07","763.12",""
"2009-01-08","760.92",""
"2009-01-09","761.31",""
"2009-01-12","760.71",""
"2009-01-13","758.49",""
"2009-01-14","758.08",""
"2009-01-15","755.22",""
"2009-01-16","756.56",""
"2009-01-19","757.07",""
"2009-01-20","756.18",""
"2009-01-21","754.35",""
"2009-01-22","755.06",""
"2009-01-23","755.06",""
"2009-01-26","753.03",""
"2009-01-27","754.39",""
"2009-01-28","756.99",""
"2009-01-29","757.81",""
"2009-01-30","755.98",""
"2009-02-02","754.48",""
"2009-02-03","754.35",""
"2009-02-04","756.05",""
"2009-02-05","756.9",""
"2009-02-06","758.96",""
"2009-02-09","760.02",""
"2009-02-10","759.16",""
"2009-02-11","757.87",""
"2009-02-12","758.89",""
"2009-02-13","760.06",""
"2009-02-16","759.24",""
"2009-02-17","756.48",""
"2009-02-18","755.26",""
"2009-02-19","754.45",""
"2009-02-20","752.08",""
"2009-02-23","750.51",""
"2009-02-24","748.78",""
"2009-02-25","749.12",""
"2009-02-26","748.59",""
"2009-02-27","747.08",""
"2009-03-02","744.43",""
"2009-03-03","742.62",""
"2009-03-04","742.53",""
"2009-03-05","742.4",""
"2009-03-06","740.07",""
"2009-03-09","738.64",""
"2009-03-10","738.83",""
"2009-03-11","741.23",""
"2009-03-12","740.95",""
"2009-03-13","745.01",""
"2009-03-16","746.02",""
"2009-03-17","746.62",""
"2009-03-18","747.21",""
"2009-03-19","747.62",""
"2009-03-20","747.7",""
"2009-03-23","751",""
"2009-03-24","753.04",""
"2009-03-25","751.91",""
"2009-03-26","753.56",""
"2009-03-27","754.72",""
"2009-03-30","750.12",""
"2009-03-31","750.56",""
"2009-04-01","752.46",""
"2009-04-02","756.95",""
"2009-04-03","758.07",""
"2009-04-06","757.4",""
"2009-04-07","755.3",""
"2009-04-08","755.53",""
"2009-04-09","756.73",""
"2009-04-10","756.73",""
"2009-04-13","756.73",""
"2009-04-14","760.66",""
"2009-04-15","762.1",""
"2009-04-16","764.68",""
"2009-04-17","768.1",""
"2009-04-20","764.47",""
"2009-04-21","763.54",""
"2009-04-22","764.61",""
"2009-04-23","766.62",""
"2009-04-24","767.84",""
"2009-04-27","769.04",""
"2009-04-28","767.73",""
"2009-04-29","770.26",""
"2009-04-30","773.96",""
"2009-05-01","773.96",""
"2009-05-04","777.72",""
"2009-05-05","781.59",""
"2009-05-06","784.2",""
"2009-05-07","786.3",""
"2009-05-08","786.3",""
"2009-05-11","785.12",""
"2009-05-12","784.31",""
"2009-05-13","782.52",""
"2009-05-14","779.61",""
"2009-05-15","781.67",""
"2009-05-18","784.36",""
"2009-05-19","788.04",""
"2009-05-20","788.12",""
"2009-05-21","788.12",""
"2009-05-22","784.95",""
"2009-05-25","784.9",""
"2009-05-26","784.93",""
"2009-05-27","788.25",""
"2009-05-28","789.48",""
"2009-05-29","791.84",""
"2009-06-01","791.84",""
"2009-06-02","800.87",""
"2009-06-03","801.99",""
"2009-06-04","799.34",""
"2009-06-05","800.37",""
"2009-06-08","796.86",""
"2009-06-09","797.28",""
"2009-06-10","801.19",""
"2009-06-11","803.98",""
"2009-06-12","805.6",""
"2009-06-15","800.78",""
"2009-06-16","800.78",""
"2009-06-17","800.78",""
"2009-06-18","787.09",""
"2009-06-19","789.94",""
"2009-06-22","788.74",""
"2009-06-23","781.3",""
"2009-06-24","783.96",""
"2009-06-25","787.22",""
"2009-06-26","791.43",""
"2009-06-29","793.09",""
"2009-06-30","794.14",""
"2009-07-01","795.04",""
"2009-07-02","793.58",""
"2009-07-03","790.48",""
"2009-07-06","786.43",""
"2009-07-07","785.34",""
"2009-07-08","782.28",""
"2009-07-09","781.78",""
"2009-07-10","779.73",""
"2009-07-13","779.3",""
"2009-07-14","779.3",""
"2009-07-15","790.5",""
"2009-07-16","795.24",""
"2009-07-17","797.3",""
"2009-07-20","802.36",""
"2009-07-21","805.57",""
"2009-07-22","805.58",""
"2009-07-23","808.36",""
"2009-07-24","812.52",""
"2009-07-27","816.19",""
"2009-07-28","817.44",""
"2009-07-29","814.84",""
"2009-07-30","818",""
"2009-07-31","824.5",""
"2009-08-03","831.76",""
"2009-08-04","834.02",""
"2009-08-05","837.58",""
"2009-08-06","838.73",""
"2009-08-07","836.69",""
"2009-08-10","840.18",""
"2009-08-11","838.16",""
"2009-08-12","836.94",""
"2009-08-13","842.7",""
"2009-08-14","843.35",""
"2009-08-17","830.57",""
"2009-08-18","829.37",""
"2009-08-19","829.28",""
"2009-08-20","835.68",""
"2009-08-21","843.48",""
"2009-08-24","850.98",""
"2009-08-25","852.81",""
"2009-08-26","852.97",""
"2009-08-27","850.76",""
"2009-08-28","852.5",""
"2009-08-31","850.46",""
"2009-09-01","844.35",""
"2009-09-02","837.97",""
"2009-09-03","838.94",""
"2009-09-04","844.56",""
"2009-09-07","850.16",""
"2009-09-08","856.25",""
"2009-09-09","858.53",""
"2009-09-10","864.64",""
"2009-09-11","868.92",""
"2009-09-14","867.09",""
"2009-09-15","868.47",""
"2009-09-16","876.73",""
"2009-09-17","882.44",""
"2009-09-18","880.97",""
"2009-09-21","877.59",""
"2009-09-22","881.86",""
"2009-09-23","880.3",""
"2009-09-24","878.93",""
"2009-09-25","872.64",""
"2009-09-28","866.75",""
"2009-09-29","872.55",""
"2009-09-30","875.04",""
"2009-10-01","869.84",""
"2009-10-02","861.55",""
"2009-10-05","861.03",""
"2009-10-06","868.98",""
"2009-10-07","877.16",""
"2009-10-08","880.84",""
"2009-10-09","885.08",""
"2009-10-12","888.96",""
"2009-10-13","891.41",""
"2009-10-14","896.81",""
"2009-10-15","901.95",""
"2009-10-16","898.87",""
"2009-10-19","898.8",""
"2009-10-20","900.92",""
"2009-10-21","897.83",""
"2009-10-22","896.36",""
"2009-10-23","897.39",""
"2009-10-26","893.23",""
"2009-10-27","884.56",""
"2009-10-28","868.52",""
"2009-10-29","867.9",""
"2009-10-30","868.87",""
"2009-11-02","860.83",""
"2009-11-03","859.67",""
"2009-11-04","865.93",""
"2009-11-05","866.59",""
"2009-11-06","872.71",""
"2009-11-09","880.18",""
"2009-11-10","883.77",""
"2009-11-11","883.77",""
"2009-11-12","884.17",""
"2009-11-13","884",""
"2009-11-16","889.96",""
"2009-11-17","891.96",""
"2009-11-18","893.15",""
"2009-11-19","888.39",""
"2009-11-20","881.9",""
"2009-11-23","884.14",""
"2009-11-24","886.05",""
"2009-11-25","887.05",""
"2009-11-26","882.33",""
"2009-11-27","875.16",""
"2009-11-30","874.68",""
"2009-12-01","881.47",""
"2009-12-02","887.02",""
"2009-12-03","889.06",""
"2009-12-04","885.7",""
"2009-12-07","883.96",""
"2009-12-08","879.49",""
"2009-12-09","875.74",""
"2009-12-10","874.3",""
"2009-12-11","877.35",""
"2009-12-14","880.6",""
"2009-12-15","881.52",""
"2009-12-16","882.54",""
"2009-12-17","881.64",""
"2009-12-18","878.12",""
"2009-12-21","879.58",""
"2009-12-22","884.46",""
"2009-12-23","887.41",""
"2009-12-24","886.8",""
"2009-12-25","886.8",""
"2009-12-28","888.83",""
"2009-12-29","889.9",""
"2009-12-30","890.84",""
"2009-12-31","891.56",""
"2010-01-01","891.56",""
"2010-01-04","897.04",""
"2010-01-05","902.37",""
"2010-01-06","905.94",""
"2010-01-07","905.72",""
"2010-01-08","908.76",""
"2010-01-11","909.17",""
"2010-01-12","906.58",""
"2010-01-13","903.68",""
"2010-01-14","906.64",""
"2010-01-15","907.64",""
"2010-01-18","906.49",""
"2010-01-19","905.06",""
"2010-01-20","904.33",""
"2010-01-21","896.84",""
"2010-01-22","883.88",""
"2010-01-25","877.18",""
"2010-01-26","872.81",""
"2010-01-27","867.41",""
"2010-01-28","869.96",""
"2010-01-29","864.1",""
"2010-02-01","865.46",""
"2010-02-02","871.19",""
"2010-02-03","875.78",""
"2010-02-04","867.32",""
"2010-02-05","852.93",""
"2010-02-08","850.82",""
"2010-02-09","852.18",""
"2010-02-10","854.95",""
"2010-02-11","859.07",""
"2010-02-12","862.98",""
"2010-02-15","862.1",""
"2010-02-16","863.73",""
"2010-02-17","869.62",""
"2010-02-18","869.62",""
"2010-02-19","874.23",""
"2010-02-22","875.3",""
"2010-02-23","872.97",""
"2010-02-24","871.83",""
"2010-02-25","869.94",""
"2010-02-26","870.85",""
"2010-03-01","876.72",""
"2010-03-02","884.25",""
"2010-03-03","884.74",""
"2010-03-04","884.1",""
"2010-03-05","892.24",""
"2010-03-08","896.27",""
"2010-03-09","898.52",""
"2010-03-10","900.79",""
"2010-03-11","901.94",""
"2010-03-12","902.96",""
"2010-03-15","901.82",""
"2010-03-16","902.75",""
"2010-03-17","906.67",""
"2010-03-18","910.79",""
"2010-03-19","911.31",""
"2010-03-22","908.4",""
"2010-03-23","912.19",""
"2010-03-24","916.55",""
"2010-03-25","917.43",""
"2010-03-26","916.3",""
"2010-03-29","915.89",""
"2010-03-30","918.26",""
"2010-03-31","918.39",""
"2010-04-01","921.16",""
"2010-04-02","921.16",""
"2010-04-05","921.16",""
"2010-04-06","929.74",""
"2010-04-07","934.03",""
"2010-04-08","932.74",""
"2010-04-09","933.8",""
"2010-04-12","931.69",""
"2010-04-13","930.02",""
"2010-04-14","933",""
"2010-04-15","939.83",""
"2010-04-16","937.2",""
"2010-04-19","930.68",""
"2010-04-20","931.29",""
"2010-04-21","937.98",""
"2010-04-22","936.8",""
"2010-04-23","940.46",""
"2010-04-26","943.51",""
"2010-04-27","938.81",""
"2010-04-28","930.94",""
"2010-04-29","931.58",""
"2010-04-30","930.93",""
"2010-05-03","932.31",""
"2010-05-04","929.85",""
"2010-05-05","922.99",""
"2010-05-06","918.35",""
"2010-05-07","901.83",""
"2010-05-10","903.87",""
"2010-05-11","921.71",""
"2010-05-12","928.48",""
"2010-05-13","928.48",""
"2010-05-14","932.94",""
"2010-05-17","929.08",""
"2010-05-18","924.44",""
"2010-05-19","921.5",""
"2010-05-20","907.4",""
"2010-05-21","891.11",""
"2010-05-24","891.11",""
"2010-05-25","892.97",""
"2010-05-26","892.49",""
"2010-05-27","900.07",""
"2010-05-28","905.75",""
"2010-05-31","907.3",""
"2010-06-01","909.55",""
"2010-06-02","906.34",""
"2010-06-03","912.34",""
"2010-06-04","912.33",""
"2010-06-07","910.51",""
"2010-06-08","906.05",""
"2010-06-09","906.5",""
"2010-06-10","909.09",""
"2010-06-11","912.76",""
"2010-06-14","912.82",""
"2010-06-15","914.2",""
"2010-06-16","917.34",""
"2010-06-17","916.7",""
"2010-06-18","917.32",""
"2010-06-21","920.12",""
"2010-06-22","920.04",""
"2010-06-23","917.63",""
"2010-06-24","911.78",""
"2010-06-25","908.14",""
"2010-06-28","909.5",""
"2010-06-29","906.72",""
"2010-06-30","895.68",""
"2010-07-01","889.51",""
"2010-07-02","880.66",""
"2010-07-05","880.5",""
"2010-07-06","884.64",""
"2010-07-07","884.34",""
"2010-07-08","890.29",""
"2010-07-09","893.15",""
"2010-07-12","895.54",""
"2010-07-13","899.41",""
"2010-07-14","899.41",""
"2010-07-15","898.15",""
"2010-07-16","893.11",""
"2010-07-19","888.27",""
"2010-07-20","888.35",""
"2010-07-21","895",""
"2010-07-22","897.78",""
"2010-07-23","901.86",""
"2010-07-26","904.96",""
"2010-07-27","905.97",""
"2010-07-28","905.99",""
"2010-07-29","904.52",""
"2010-07-30","904.85",""
"2010-08-02","910.01",""
"2010-08-03","910.97",""
"2010-08-04","912.29",""
"2010-08-05","914.3",""
"2010-08-06","914.6",""
"2010-08-09","914.4",""
"2010-08-10","914.33",""
"2010-08-11","910.91",""
"2010-08-12","908.13",""
"2010-08-13","908.25",""
"2010-08-16","909.69",""
"2010-08-17","912.58",""
"2010-08-18","915.09",""
"2010-08-19","916.24",""
"2010-08-20","913.03",""
"2010-08-23","914.27",""
"2010-08-24","912.65",""
"2010-08-25","909.04",""
"2010-08-26","909.09",""
"2010-08-27","907.7",""
"2010-08-30","909.95",""
"2010-08-31","911.6",""
"2010-09-01","912.97",""
"2010-09-02","915.02",""
"2010-09-03","916.21",""
"2010-09-06","917.4",""
"2010-09-07","918.34",""
"2010-09-08","919.6",""
"2010-09-09","921.99",""
"2010-09-10","922.4",""
"2010-09-13","924.03",""
"2010-09-14","926.64",""
"2010-09-15","925.96",""
"2010-09-16","923.57",""
"2010-09-17","924.15",""
"2010-09-20","926.12",""
"2010-09-21","928.03",""
"2010-09-22","925.07",""
"2010-09-23","923.54",""
"2010-09-24","923.87",""
"2010-09-27","927.36",""
"2010-09-28","926.77",""
"2010-09-29","927.99",""
"2010-09-30","928.76",""
"2010-10-01","929.5",""
"2010-10-04","930.23",""
"2010-10-05","930.35",""
"2010-10-06","937.36",""
"2010-10-07","936.82",""
"2010-10-08","936.42",""
"2010-10-11","939.19",""
"2010-10-12","938.35",""
"2010-10-13","942.08",""
"2010-10-14","944.8",""
"2010-10-15","942.6",""
"2010-10-18","941.31",""
"2010-10-19","938.28",""
"2010-10-20","936.12",""
"2010-10-21","938.31",""
"2010-10-22","938.18",""
"2010-10-25","940.92",""
"2010-10-26","941.57",""
"2010-10-27","939.67",""
"2010-10-28","938.71",""
"2010-10-29","939.15",""
"2010-11-01","939.15",""
"2010-11-02","943.35",""
"2010-11-03","946.32",""
"2010-11-04","949.57",""
"2010-11-05","955.27",""
"2010-11-08","955.41",""
"2010-11-09","955.98",""
"2010-11-10","951.8",""
"2010-11-11","951.8",""
"2010-11-12","947.57",""
"2010-11-15","943.76",""
"2010-11-16","942.03",""
"2010-11-17","937.64",""
"2010-11-18","940",""
"2010-11-19","941.54",""
"2010-11-22","942.48",""
"2010-11-23","940.62",""
"2010-11-24","941.18",""
"2010-11-25","944.58",""
"2010-11-26","944.47",""
"2010-11-29","943.37",""
"2010-11-30","943.38",""